Satellite: NOAA-15
Catalog number: 25338
Epoch time:      09119.66648152
Element set:    0907
Inclination:      098.5835 deg
RA of node:       109.9448 deg
Eccentricity:    0.0010379
Arg of perigee:   193.4016 deg
Mean anomaly:     166.6896 deg
Mean motion:   14.24754767 rev/day
Decay rate:      -1.33e-06 rev/day^2
Epoch rev:           56986
Checksum:              359

Satellite: NOAA-16
Catalog number: 26536
Epoch time:      09119.69987055
Element set:    0383
Inclination:      099.1769 deg
RA of node:       122.1958 deg
Eccentricity:    0.0011324
Arg of perigee:   060.5112 deg
Mean anomaly:     299.7179 deg
Mean motion:   14.12517125 rev/day
Decay rate:       2.35e-06 rev/day^2
Epoch rev:           44345
Checksum:              320

Satellite: NOAA-10
Catalog number: 16969
Epoch time:      09119.71951223
Element set:    0593
Inclination:      098.6943 deg
RA of node:       146.6233 deg
Eccentricity:    0.0012223
Arg of perigee:   343.0246 deg
Mean anomaly:     017.0514 deg
Mean motion:   14.27385079 rev/day
Decay rate:        3.0e-08 rev/day^2
Epoch rev:           17659
Checksum:              302

Satellite: NOAA-17
Catalog number: 27453
Epoch time:      09119.73086370
Element set:    0392
Inclination:      098.4873 deg
RA of node:       180.4605 deg
Eccentricity:    0.0010697
Arg of perigee:   263.5547 deg
Mean anomaly:     096.4404 deg
Mean motion:   14.24058174 rev/day
Decay rate:       -9.4e-07 rev/day^2
Epoch rev:           35585
Checksum:              329

Satellite: NOAA-14
Catalog number: 23455
Epoch time:      09119.76220511
Element set:    0598
Inclination:      098.9105 deg
RA of node:       197.6076 deg
Eccentricity:    0.0008756
Arg of perigee:   332.9268 deg
Mean anomaly:     027.1448 deg
Mean motion:   14.13763141 rev/day
Decay rate:       2.77e-06 rev/day^2
Epoch rev:           73908
Checksum:              327

Satellite: NOAA-18
Catalog number: 28654
Epoch time:      09119.76551991
Element set:    0881
Inclination:      098.9053 deg
RA of node:       063.3873 deg
Eccentricity:    0.0015008
Arg of perigee:   136.8546 deg
Mean anomaly:     223.3825 deg
Mean motion:   14.11251864 rev/day
Decay rate:        9.8e-07 rev/day^2
Epoch rev:           20312
Checksum:              319

Satellite: OKEAN-4
Catalog number: 23317
Epoch time:      09119.77949819
Element set:    0895
Inclination:      082.5425 deg
RA of node:       019.6619 deg
Eccentricity:    0.0022382
Arg of perigee:   159.7890 deg
Mean anomaly:     200.4209 deg
Mean motion:   14.82692296 rev/day
Decay rate:       2.87e-06 rev/day^2
Epoch rev:           78519
Checksum:              353

Satellite: MET-2/21
Catalog number: 22782
Epoch time:      09119.80113197
Element set:    0447
Inclination:      082.5499 deg
RA of node:       220.3817 deg
Eccentricity:    0.0023850
Arg of perigee:   120.7027 deg
Mean anomaly:     239.6492 deg
Mean motion:   13.83636731 rev/day
Decay rate:        4.2e-07 rev/day^2
Epoch rev:           79091
Checksum:              307

Satellite: NOAA-19
Catalog number: 33591
Epoch time:      09119.80603407
Element set:    0086
Inclination:      098.7444 deg
RA of node:       066.8344 deg
Eccentricity:    0.0014703
Arg of perigee:   024.5297 deg
Mean anomaly:     335.6566 deg
Mean motion:   14.10952713 rev/day
Decay rate:      -1.02e-06 rev/day^2
Epoch rev:           01161
Checksum:              294

Satellite: MET-3/5
Catalog number: 21655
Epoch time:      09119.90883332
Element set:    0684
Inclination:      082.5482 deg
RA of node:       240.5918 deg
Eccentricity:    0.0012817
Arg of perigee:   306.2527 deg
Mean anomaly:     053.7412 deg
Mean motion:   13.17018785 rev/day
Decay rate:        5.1e-07 rev/day^2
Epoch rev:           85127
Checksum:              306

Satellite: NOAA-12
Catalog number: 21263
Epoch time:      09119.95931099
Element set:    0120
Inclination:      098.7718 deg
RA of node:       127.9982 deg
Eccentricity:    0.0011460
Arg of perigee:   288.3287 deg
Mean anomaly:     071.6646 deg
Mean motion:   14.25576043 rev/day
Decay rate:        1.4e-07 rev/day^2
Epoch rev:           93352
Checksum:              318

Satellite: RESURS
Catalog number: 25394
Epoch time:      09120.66720404
Element set:     201
Inclination:      098.3472 deg
RA of node:       155.4280 deg
Eccentricity:    0.0002043
Arg of perigee:   020.9244 deg
Mean anomaly:     339.2019 deg
Mean motion:   14.24181835 rev/day
Decay rate:       -3.4e-07 rev/day^2
Epoch rev:           56163
Checksum:              258

Satellite: OKEAN-0
Catalog number: 25860
Epoch time:      09120.77490461
Element set:     664
Inclination:      097.7831 deg
RA of node:       103.8490 deg
Eccentricity:    0.0001248
Arg of perigee:   042.9901 deg
Mean anomaly:     317.1403 deg
Mean motion:   14.73569752 rev/day
Decay rate:        1.1e-07 rev/day^2
Epoch rev:           52616
Checksum:              288

